Home   Weather   Mörfelden-Walldorf   Past weeks

Flag for Germany Past Weather in Mörfelden-Walldorf, Hesse, Germany — Yesterday and Last 2 Weeks

Now
34 °F

Passing clouds.


Feels Like: 28 °F
Forecast: 26 / 36 °F
Wind: 7 mph from Northeast

Location: Frankfurt-M-Flughafen Airport

Current Time: Dec 3, 2016 at 10:35:34 am

Latest Report: Dec 3, 2016 at 10:20 am


Visibility: N/A

Pressure: 30.30 "Hg

Humidity: 81%

Dew Point: 28 °F

Location of Mörfelden-WalldorfLocation

Past Weather in Mörfelden-Walldorf — Graph

°F

Mörfelden-Walldorf Temperature Yesterday

Maximum temperature yesterday: 48 °F (at 12:50 pm)
Minimum temperature yesterday: 30 °F (at 11:20 pm)
Average temperature yesterday: 41 °F

High & Low Weather Summary for the Past Weeks

 TemperatureHumidityPressure
High59 °F (Nov 20, 3:20 pm)100% (Nov 22, 12:50 am)30.57 "Hg (Nov 22, 12:50 am)
Low18 °F (Nov 30, 8:20 am)47% (Nov 20, 12:50 pm)29.50 "Hg (Nov 18, 9:20 am)
Average42 °F78%30.07 "Hg
* Reported Nov 18 9:20 am — Dec 3 9:20 am, Mörfelden-Walldorf, Weather by CustomWeather, © 2016

Note: Actual official high and low records may vary slightly from our data, if they occured in-between our weather recording intervals... More about our weather records

Advertising

Mörfelden-Walldorf Weather History for the Previous 24 Hours

Scroll right to see more
 ConditionsComfort  
Time TempWeatherWind HumidityBarometerVisibility
9:20 am
Sat, Dec 3
28 °FSunny.5 mph86%30.27 "Hg10 mi
8:50 am27 °FSunny.7 mph93%30.27 "Hg10 mi
8:20 am25 °FFog.7 mph93%30.27 "HgN/A
7:50 am25 °FClear.6 mph93%30.27 "Hg10 mi
7:20 am25 °FFog.5 mph93%30.24 "HgN/A
6:50 am27 °FFog.6 mph86%30.24 "HgN/A
6:20 am27 °FClear.3 mph93%30.24 "Hg10 mi
5:50 am27 °FFog.3 mph93%30.24 "HgN/A
5:20 am27 °FFog.3 mph93%30.24 "HgN/A
4:50 am25 °FClear.6 mph93%30.24 "Hg10 mi
4:20 am27 °FFog.8 mph93%30.24 "HgN/A
3:50 am28 °FFog.6 mph86%30.24 "HgN/A
3:20 am28 °FClear.6 mph93%30.24 "Hg10 mi
2:20 am27 °FClear.8 mph93%30.24 "Hg10 mi
1:50 am28 °FFog.7 mph93%30.24 "HgN/A
1:20 am30 °FFog.8 mph93%30.24 "HgN/A
12:50 am32 °FFog.8 mph93%30.24 "HgN/A
12:20 am30 °FFog.9 mph93%30.24 "HgN/A
11:50 pm
Fri, Dec 2
32 °FFog.8 mph93%30.24 "HgN/A
11:20 pm30 °FClear.2 mph93%30.24 "Hg10 mi
10:50 pm32 °FClear.3 mph93%30.21 "Hg10 mi
10:20 pm32 °FPassing clouds.5 mph93%30.21 "HgN/A
9:50 pm34 °FPassing clouds.3 mph93%30.21 "HgN/A
9:20 pm34 °FPassing clouds.6 mph93%30.21 "HgN/A
8:50 pm36 °FFog.6 mph87%30.21 "HgN/A
8:20 pm34 °FFog.5 mph93%30.21 "HgN/A
7:50 pm34 °FFog.3 mph93%30.21 "HgN/A
7:20 pm36 °FFog.2 mph93%30.21 "HgN/A
6:50 pm39 °FPassing clouds.5 mph81%30.21 "HgN/A
6:20 pm39 °FPassing clouds.2 mph81%30.21 "HgN/A
5:50 pm43 °FPassing clouds.7 mph71%30.21 "HgN/A
5:20 pm43 °FPartly cloudy.6 mph76%30.21 "HgN/A
4:50 pm43 °FLight rain. Partly cloudy.6 mph76%30.18 "HgN/A
4:20 pm43 °FLight rain. Partly sunny.8 mph71%30.18 "HgN/A
3:50 pm43 °FScattered showers. Partly sunny.9 mph76%30.18 "HgN/A
3:20 pm43 °FSprinkles. Partly sunny.13 mph81%30.18 "HgN/A
2:50 pm46 °FSprinkles. Broken clouds.8 mph76%30.18 "HgN/A
2:20 pm46 °FSprinkles. Broken clouds.9 mph76%30.15 "HgN/A
1:50 pm48 °FScattered showers. Broken clouds.8 mph76%30.15 "HgN/A
1:20 pm48 °FScattered showers. Partly sunny.5 mph76%30.15 "HgN/A
12:50 pm48 °FPartly sunny.6 mph76%30.15 "HgN/A
12:20 pm46 °FScattered showers. Partly sunny.7 mph82%30.18 "HgN/A
11:50 am46 °FScattered showers. Broken clouds.7 mph76%30.18 "HgN/A
11:20 am46 °FBroken clouds.10 mph76%30.18 "HgN/A
10:50 am46 °FPartly sunny.10 mph76%30.18 "HgN/A
10:20 am45 °FPartly sunny.10 mph81%30.18 "HgN/A
Weather by CustomWeather, © 2016

See weather overviewHow to use our weather pages